Regional Weather Roundup
Issued by NWS State College, PA

Home | Current Version | Previous Version | Text Only | Print | Product List | Glossary On
Versions: 1 2 3 4 5 6 7 8 9 10 11 12 13 14 15 16 17 18 19 20 21 22 23 24 25 26 27 28 29 30 31 32 33 34 35 36 37 38 39 40 41 42 43 44 45 46 47 48 49 50
000
ASUS41 KCTP 100010
RWRCTP

REGIONAL WEATHER ROUNDUP
NATIONAL WEATHER SERVICE STATE COLLEGE PA
700 PM EST TUE FEB 09 2016

Note: "fair" indicates few or no clouds below 12,000 feet with no
significant weather and/or obstructions to visibility.

* = STATION THAT DOES NOT REPORT PRECIPITATION /E.G. RAIN...SNOW...ETC/
    THUNDER OR FOG.

PAZ002>004-007>009-013>016-020>023-029>032-100100-
WESTERN PENNSYLVANIA

CITY           SKY/WX    TMP DP  RH WIND       PRES   REMARKS
ERIE           LGT SNOW  30  26  85 W10       29.60R FOG
MEADVILLE      CLOUDY    29  23  78 SW7       29.58R
FRANKLIN*      CLOUDY    28  23  80 SW8G17    29.61R
NEW CASTLE     LGT SNOW  27  24  89 SW10      29.65R FOG
BEAVER COUNTY  FLURRIES  27  23  86 SW9G16    29.66R
BUTLER*        CLOUDY    27  21  80 W10G21    29.68R
PITTSBURGH INT FLURRIES  26  22  84 W8        29.66R
PITTSBURGH     CLOUDY    27  21  78 W14       29.67R
INDIANA*       CLOUDY    27  25  93 W13       29.66R FOG
LATROBE        LGT SNOW  25  25 100 SW12G21   29.68R VSB 1   WCI  14
WASHINGTON CO* CLOUDY    25  19  80 SW10      29.70R WCI  15
$$

PAZ004>006-010>012-017>019-024>028-033>037-041-042-045-046-049>053-100100-
CENTRAL PENNSYLVANIA

CITY           SKY/WX    TMP DP  RH WIND       PRES   REMARKS
BRADFORD       CLOUDY    29  20  69 W9G17     29.52R
DUBOIS         CLOUDY    28  22  78 SW13      29.55R
CLEARFIELD     CLOUDY    29  25  85 SW8       29.58R
JOHNSTOWN      LGT SNOW  22  17  81 W13       29.57R WCI  10
ALTOONA        CLOUDY    27  19  72 W7        29.60R
STATE COLLEGE  CLOUDY    30  27  86 W14       29.57R
WILLIAMSPORT   LGT SNOW  37  29  72 E3        29.57R
SELINSGROVE    LGT SNOW  32  30  92 S3        29.59R VSB 1
FT INDIANTOWN  LGT SNOW  30  30 100 CALM      29.60R VSB 3/4
CAPITAL CITY   LGT SNOW  32  28  85 CALM      29.61R FOG
HARRISBURG     LGT SNOW  32  29  88 CALM      29.61R VSB 3/4
YORK           LGT SNOW  32  30  92 W6        29.61R FOG
$$

PAZ038>040-043-044-047-048-054-055-060>062-067>071-100100-
EASTERN PENNSYLVANIA

CITY           SKY/WX    TMP DP  RH WIND       PRES   REMARKS
SCRANTON       LGT SNOW  32  30  92 SW3       29.54S FOG
MOUNT POCONO   LGT SNOW  28  25  88 S3        29.50R FOG
ALLENTOWN      LGT SNOW  32  29  88 CALM      29.60R FOG
QUAKERTOWN*    CLOUDY    32  30  93 CALM      29.60R VSB 1
READING        LGT SNOW  31  30  96 CALM      29.60R FOG
LANCASTER      LGT SNOW  31  30  96 CALM      29.61R FOG
COATESVILLE    LGT SNOW  30  32 100 CALM      29.60R
POTTSTOWN      LGT SNOW  30  30 100 CALM      29.62R VSB 1
BLUE BELL        N/A     32  32 100 CALM      29.60R
DOYLESTOWN     LGT SNOW  30  29  96 CALM      29.60R FOG
WILLOW GROVE   NOT AVBL
NORTH PHILA    LGT SNOW  34  32  92 E3        29.63S VSB 1
PHILADELPHIA   CLOUDY    34  31  88 E5        29.62R FOG
$$



USA.gov is the U.S. government's official web portal to all federal, state and local government web resources and services.